Location: Alston School (historical)
(35.5076°N, 89.8251°W)
Time: 22:23:07
(UTC+00:00)

SL-16 R/B - Pass Details

Date: 09 December 2025
Orbit: 841 x 845 km, 71.0° (Epoch: 16 January)

Event Time Altitude Azimuth Distance (km) Brightness Sun altitude
Exits shadow 12:02:45 - 335° (NNW) 3,056 4.7 -10.9°
Reaches altitude 10° 12:04:18 10° 333° (NNW) 2,468 4.2 -10.6°
Maximum altitude 12:09:55 69° 252° (WSW) 901 2.2 -9.6°
Drops below altitude 10° 12:15:31 10° 169° (S) 2,454 5.1 -8.5°
Sets 12:17:57 0° 167° (SSE) 3,385 5.9 -8.1°
